, SD

(GMT )
Rapid City

Weather History for KRAP - May, 2013

Change the Weather History Date:

Tuesday, May 7, 2013

  Actual Average Record
Temperature  
Mean Temperature 56 °F 52 °F  
Max Temperature 75 °F 65 °F 90 °F (1992)
Min Temperature 37 °F 39 °F 25 °F (2010)
Degree Days  
Heating Degree Days 9 13  
Month to date heating degree days 142 98  
Since 1 July heating degree days 6941 6827  
Cooling Degree Days 0 0  
Month to date cooling degree days 0 0  
Year to date cooling degree days 0 2  
Growing Degree Days 7 (Base 50)    
Moisture  
Dew Point 37 °F    
Average Humidity 54    
Maximum Humidity 80    
Minimum Humidity 27    
Precipitation  
Precipitation 0.00 in 0.10 in 0.88 in (2005)
Month to date precipitation 0.00 0.65  
Year to date precipitation 4.46 4.12  
Snow  
Snow 0.00 in 0.10 in 7.40 in (1950)
Month to date snowfall 0.0 0.6  
Since 1 July snowfall 76.7 40.6  
Snow Depth 0.00 in    
Sea Level Pressure  
Sea Level Pressure 29.87 in    
Wind  
Wind Speed 9 mph (South)    
Max Wind Speed 25 mph    
Max Gust Speed 30 mph    
Visibility 10 miles    
Events      
T = Trace of Precipitation, MM = Missing Value Source: NWS Daily Summary

Daily Weather History Graph

Daily Weather History Graph

Search for Another Location

Airport or City:

Trip Planner

Search our weather history database for the weather conditions in past years. The results will help you decide how hot, cold, wet, or windy it might be!

Date:

Astronomy

May. 07, 2013 Rise Set
Actual Time 5:35 AM MDT 8:03 PM MDT
Civil Twilight 5:02 AM MDT 8:35 PM MDT
Nautical Twilight 4:22 AM MDT 9:16 PM MDT
Astronomical Twilight 3:36 AM MDT 10:02 PM MDT
Moon 4:15 AM MDT (5/7) 6:01 PM MDT (5/7)
Length of Visible Light 15h 32m
Length of Day
14h 27m
Waning Crescent, 5% of the Moon is Illuminated
May 7
Waning Crescent
May 9
New
May 17
First Quarter
May 24
Full
May 31
Last Quarter

Hourly Weather History & Observations

Time (MDT) Temp. Windchill Dew Point Humidity Pressure Visibility Wind Dir Wind Speed Gust Speed Precip Events Conditions
12:52 AM 46.0 °F 44.8 °F 28.9 °F 51% 29.97 in 10.0 mi NW 3.5 mph - N/A   Clear
1:52 AM 39.2 °F - 26.6 °F 61% 29.97 in 10.0 mi Calm Calm - N/A   Clear
2:52 AM 39.9 °F - 27.0 °F 60% 29.94 in 10.0 mi Calm Calm - N/A   Clear
3:52 AM 45.0 °F 42.6 °F 27.0 °F 49% 29.92 in 10.0 mi WNW 4.6 mph - N/A   Clear
4:52 AM 39.9 °F - 28.0 °F 63% 29.92 in 10.0 mi Calm Calm - N/A   Clear
5:52 AM 39.9 °F - 28.0 °F 63% 29.92 in 10.0 mi Calm Calm - N/A   Clear
6:52 AM 46.9 °F - 32.0 °F 56% 29.91 in 10.0 mi Calm Calm - N/A   Clear
7:52 AM 51.1 °F - 33.1 °F 50% 29.91 in 10.0 mi SSE 4.6 mph - N/A   Clear
8:52 AM 61.0 °F - 37.0 °F 41% 29.90 in 10.0 mi South 12.7 mph - N/A   Clear
9:52 AM 64.9 °F - 39.9 °F 40% 29.88 in 10.0 mi South 17.3 mph - N/A   Clear
10:52 AM 66.0 °F - 41.0 °F 40% 29.88 in 10.0 mi South 12.7 mph - N/A   Clear
11:52 AM 71.1 °F - 42.1 °F 35% 29.86 in 10.0 mi South 18.4 mph 23.0 mph N/A   Clear
12:52 PM 73.4 °F - 41.0 °F 31% 29.83 in 10.0 mi South 18.4 mph 23.0 mph N/A   Clear
1:52 PM 75.0 °F - 41.0 °F 29% 29.83 in 10.0 mi South 16.1 mph 21.9 mph N/A   Mostly Cloudy
2:52 PM 71.1 °F - 36.0 °F 28% 29.82 in 10.0 mi SSW 12.7 mph - N/A   Mostly Cloudy
3:52 PM 73.0 °F - 37.0 °F 27% 29.79 in 10.0 mi WSW 13.8 mph - N/A   Clear
4:52 PM 71.1 °F - 37.0 °F 29% 29.79 in 10.0 mi WSW 5.8 mph - N/A   Clear
5:52 PM 64.0 °F - 44.1 °F 48% 29.82 in 10.0 mi ESE 24.2 mph 29.9 mph N/A   Clear
6:52 PM 62.1 °F - 43.0 °F 50% 29.82 in 10.0 mi SE 17.3 mph - N/A   Clear
7:52 PM 57.0 °F - 43.0 °F 59% 29.85 in 10.0 mi SE 5.8 mph - N/A   Clear
8:52 PM 55.9 °F - 43.0 °F 62% 29.86 in 10.0 mi South 9.2 mph - N/A   Clear
9:52 PM 53.1 °F - 43.0 °F 69% 29.88 in 10.0 mi South 10.4 mph - N/A   Clear
10:52 PM 53.1 °F - 44.1 °F 71% 29.87 in 10.0 mi South 9.2 mph - N/A   Clear
11:52 PM 48.0 °F - 42.1 °F 80% 29.87 in 10.0 mi SSE 9.2 mph - N/A   Clear